Location: Bettgenhausen
(50.6463°N, 7.5681°E)
Time: 04:22:31
(UTC+00:00)

Cosmos 1346 Rocket - Pass Details

Date: 27 February 2020
Orbit: 527 x 552 km, 81.2° (Epoch: 02 April)

Event Time Altitude Azimuth Distance (km) Brightness Sun altitude
Rises 18:03:55 0° 190° (S) 2,692 6.5 -9.8°
Reaches altitude 10° 18:06:04 10° 191° (S) 1,800 5.6 -10.2°
Maximum altitude 18:10:02 89° 112° (ESE) 545 2.8 -10.8°
Drops below altitude 10° 18:14:00 10° 13° (NNE) 1,800 5.3 -11.4°
Sets 18:16:10 0° 13° (NNE) 2,692 6.2 -11.8°
